Regional Weather Roundup
Issued by NWS

Home | Current Version | Previous Version | Graphics & Text | Print | Product List | Glossary On
Versions: 1 2 3 4 5 6 7 8 9 10 11 12 13 14 15 16 17 18 19 20 21 22 23 24 25 26 27 28 29 30 31 32 33 34 35 36 37 38 39 40 41 42 43 44 45 46 47 48 49 50
000
ASUS43 KDTX 251501
RWRMI
MICHIGAN HOURLY REGIONAL WEATHER ROUNDUP
NATIONAL WEATHER SERVICE DETROIT/PONTIAC MI
1100 AM EDT SUN JUN 25 2017

NOTE: "FAIR" INDICATES FEW OR NO CLOUDS BELOW 12,000 FEET WITH NO
SIGNIFICANT WEATHER AND/OR OBSTRUCTION TO VISIBILITY.

MIZ047>049-052>055-059>063-066>070-074>076-081>083-251600-
SOUTHEAST LOWER MICHIGAN

CITY           SKY/WX    TMP DP  RH WIND       PRES   REMARKS
ADRIAN         SUNNY     65  47  52 NW14G28   30.06R
ALMA           PTSUNNY   64  49  59 W15       30.01R
ANN ARBOR      MOSUNNY   66  48  52 W15G25    30.02S
BAD AXE        PTSUNNY   59  52  77 W9G21     29.97R
CARO           PTSUNNY   64  53  69 W10       29.98R
DETROIT CITY   MOSUNNY   68  45  43 W16       29.99S
DETROIT        MOSUNNY   68  46  45 W16G28    30.02S
FLINT          PTSUNNY   63  48  58 W14       30.01R
GROSSE ILE     PTSUNNY   67  49  52 W12G20    30.01S
HILLSDALE      PTSUNNY   63  45  51 W14G24    30.06S
HOWELL         MOSUNNY   65  45  49 W15G22    30.02S

CITY           SKY/WX    TMP DP  RH WIND       PRES   REMARKS
JACKSON        MOSUNNY   64  48  56 W12       30.04S
LAMBERTVILLE   MOSUNNY   66  48  51 W14       30.04R
LANSING        PTSUNNY   66  47  50 W16G24    30.03R
LAPEER         CLOUDY    64  49  59 W10G16    30.00R
MASON          PTSUNNY   63  49  58 W18       30.04R
MONROE         MOSUNNY   67  48  50 W17G25    30.02S
MT. CLEMENS    MOSUNNY   69  47  45 W20       29.98R
PONTIAC        PTSUNNY   63  47  55 W20       30.00R
PORT HOPE        N/A     62  48  60 W15G23    29.94R
PORT HURON     SUNNY     64  45  48 W7G18     29.98R
TRI CITIES     PTSUNNY   63  51  65 W15       29.99R
MIDLAND        CLOUDY    64  48  57 W8        29.98R
TROY           MOSUNNY   67  42  40 W17G25    30.02R
SAGINAW HB     MOSUNNY   64  46  52 SW15      29.98S
$$
MIZ043>046-050>051-056>058-064>065-071>073-077>080-251600-
SOUTHWEST LOWER MICHIGAN

CITY           SKY/WX    TMP DP  RH WIND       PRES   REMARKS
BATTLE CREEK   MOSUNNY   65  49  56 W14G23    30.06F
BENTON HARBOR  SUNNY     65  51  60 W21       30.09R
BIG RAPIDS     CLOUDY    58  50  77 W10       29.99R HAZE
COLDWATER      PTSUNNY   65  46  50 NW13G20   30.08R
FREMONT        CLOUDY    61  50  66 W16       30.00S
HOLLAND        MOSUNNY   64  53  67 W16G28    30.06R
GRAND RAPIDS   PTSUNNY   63  51  65 SW20G25   30.02S
IONIA          PTSUNNY   65  49  55 SW17      30.02S
KALAMAZOO      PTSUNNY   65  45  48 W17G23    30.07S
LUDINGTON      CLOUDY    58  53  84 W6        29.99S
MARSHALL       PTSUNNY   65  48  53 W14G20    30.05S
MOUNT PLEASANT CLOUDY    61  49  63 W7        29.98S
MUSKEGON       PTSUNNY   64  52  64 W18G24    30.03S
SOUTH HAVEN    SUNNY     65  54  69 W15G21    30.07S
$$
MIZ016>042-251600-
NORTHERN LOWER MICHIGAN

CITY           SKY/WX    TMP DP  RH WIND       PRES   REMARKS
ALPENA         CLOUDY    63  54  72 NW8       29.94R
BELLAIRE       PTSUNNY   60  52  77 W3        29.95S
CADILLAC       RAIN      55  52  88 W7        29.97S
CHARLEVOIX     PTSUNNY   61  54  77 NW7       29.97S
FRANKFORT      PTSUNNY   60  51  73 W8        29.97S
GAYLORD        LGT RAIN  58  48  69 W6        29.95R
GRAYLING       MOSUNNY   60  51  72 SW8       29.96S
HARBOR SPRINGS SUNNY     62  56  81 SW5       29.94R
HOUGHTON LAKE  PTSUNNY   60  49  66 W9        29.97S
MANISTEE       LGT RAIN  56  53  90 W10       29.98R FOG
OSCODA         PTSUNNY   63  50  62 NW9G16    29.94R
PELLSTON       MOSUNNY   64  51  62 VRB6      29.93S
ROGERS CITY    CLOUDY    58  54  86 N9        29.95R
TRAVERSE CITY  CLOUDY    58  54  86 SW6       29.95R
$$
MIZ007>008-015-251600-
EASTERN UPPER MICHIGAN

CITY           SKY/WX    TMP DP  RH WIND       PRES   REMARKS
KINROSS        CLOUDY    57  51  80 N13       29.95S
MACKINAC ISLAN CLOUDY    57  54  91 NE8       29.94R
NEWBERRY       CLOUDY    57  55  91 NE3       29.95R
S. S. MARIE    CLOUDY    60  52  74 W3        29.94S
MUNISING         N/A     52  51  97 N9G18     29.97R
$$
MIZ004>006-011>014-085-251600-
CENTRAL UPPER MICHIGAN

CITY           SKY/WX    TMP DP  RH WIND       PRES   REMARKS
MANISTIQUE     CLOUDY    57  53  87 NW9       29.95S
ESCANABA       PTSUNNY   61  53  75 N10       29.96S
MENOMINEE      SUNNY     62  52  69 VRB7      29.99S
SAWYER-GWINN   PTSUNNY   61  50  67 N10       29.97S
$$
MIZ001>003-009>011-084-251600-
WESTERN UPPER MICHIGAN

CITY           SKY/WX    TMP DP  RH WIND       PRES   REMARKS
IRON MOUNTAIN  CLOUDY    59  50  72 NW10      29.99R
HOUGHTON       CLOUDY    56  51  84 W12       29.99R
COPPER HARBOR    N/A     53  50  89 N13       29.99R
IRONWOOD       CLOUDY    55  52  89 W7        30.03S
$$

ABBREVIATIONS USED IN REMARKS
   TC - TEMPERATURE IN CELSIUS
  WCI - WIND CHILL INDEX
   HX - HEAT INDEX
  VSB - VISIBILITY




USA.gov is the U.S. government's official web portal to all federal, state and local government web resources and services.